Location: Moulis
(42.9609°N, 1.0909°E)
Time: 01:32:01
(UTC+00:00)

ARIANE 5 R/B - Pass Details

Date: 11 December 2025
Orbit: 747 x 792 km, 98.8° (Epoch: 17 January)

Event Time Altitude Azimuth Distance (km) Brightness Sun altitude
Rises 17:15:51 0° 156° (SSE) 3,202 5.7 -9.8°
Reaches altitude 10° 17:18:08 10° 154° (SSE) 2,287 4.9 -10.1°
Maximum altitude 17:23:08 67° 73° (ENE) 833 2.5 -11.0°
Drops below altitude 10° 17:28:13 10° 351° (N) 2,332 4.9 -11.9°
Sets 17:30:34 0° 349° (N) 3,271 5.7 -12.3°
